This is the latest recevied weather packets stored in our database for station/object EA7RX-4. If no packets are shown the sender has not sent any weather packets the latest 10 day(s).
| Time | Temp. | Humidity | Pressure | Rain* | Wind** | Luminosity | Snow |
|---|---|---|---|---|---|---|---|
| 1787655003 | 21.67° C | 54% | 1016.5 hPa | 0 mm | - | 1070 W/m² | - |
| 1787654403 | 21.11° C | 55% | 1016.5 hPa | 0 mm | - | 649 W/m² | - |
| 1787653803 | 21.11° C | 55% | 1016.6 hPa | 0 mm | - | 911 W/m² | - |
| 1787653203 | 20.56° C | 58% | 1016.7 hPa | 0 mm | - | 858 W/m² | - |
| 1787652603 | 20.56° C | 58% | 1016.8 hPa | 0 mm | - | 272 W/m² | - |
| 1787652003 | 20° C | 60% | 1016.6 hPa | 0 mm | - | 781 W/m² | - |
| 1787651403 | 20° C | 63% | 1016.7 hPa | 0 mm | - | 696 W/m² | - |
| 1787650803 | 19.44° C | 63% | 1016.7 hPa | 0 mm | - | 501 W/m² | - |
| 1787650203 | 19.44° C | 64% | 1016.6 hPa | 0 mm | - | 559 W/m² | - |
| 1787649603 | 18.89° C | 67% | 1016.5 hPa | 0 mm | - | 508 W/m² | - |
| 1787649003 | 18.89° C | 68% | 1016.3 hPa | 0 mm | - | 499 W/m² | - |
| 1787648403 | 18.33° C | 69% | 1016.1 hPa | 0 mm | - | 403 W/m² | - |
| 1787647803 | 18.33° C | 71% | 1016.4 hPa | 0 mm | - | 505 W/m² | - |
| 1787647203 | 17.78° C | 74% | 1016.3 hPa | 0 mm | - | 462 W/m² | - |
| 1787646603 | 17.78° C | 76% | 1016.1 hPa | 0 mm | - | 297 W/m² | - |
| 1787646003 | 17.78° C | 77% | 1015.9 hPa | 0 mm | - | 224 W/m² | - |
| 1787645403 | 17.22° C | 77% | 1015.9 hPa | 0 mm | - | 352 W/m² | - |
| 1787644803 | 17.22° C | 77% | 1015.7 hPa | 0 mm | - | 299 W/m² | - |
| 1787644203 | 17.22° C | 79% | 1015.9 hPa | 0 mm | - | 245 W/m² | - |
| 1787643603 | 17.22° C | 79% | 1015.7 hPa | 0 mm | - | 283 W/m² | - |
| 1787643003 | 16.67° C | 80% | 1015.5 hPa | 0 mm | - | 223 W/m² | - |
| 1787642403 | 16.67° C | 80% | 1015.8 hPa | 0 mm | - | 171 W/m² | - |
| 1787641803 | 16.67° C | 81% | 1015.6 hPa | 0 mm | - | 106 W/m² | - |
| 1787641203 | 16.11° C | 83% | 1015.8 hPa | 0 mm | - | 127 W/m² | - |
| 1787640603 | 15.56° C | 85% | 1015.5 hPa | 0 mm | - | 155 W/m² | - |
* Rain latest hour (hover to see other rain measurements)
** Current wind speed in m/s (hover to see current wind gust speed)